Regional Weather Roundup
Issued by NWS Cleveland, OH

Home | Current Version | Previous Version | Graphics & Text | Print | Product List | Glossary Off
Versions: 1 2 3 4 5 6 7 8 9 10 11 12 13 14 15 16 17 18 19 20 21 22 23 24 25 26 27 28 29 30 31 32 33 34 35 36 37 38 39 40 41 42 43 44 45 46 47 48 49 50

000
ASUS41 KCLE 260010
RWRCLE
OHIO REGIONAL WEATHER ROUNDUP
NATIONAL WEATHER SERVICE WILMINGTON, OH
800 PM EDT SAT OCT 25 2014

NOTE: "FAIR" INDICATES FEW OR NO CLOUDS BELOW 12,000 FEET WITH NO
SIGNIFICANT WEATHER AND/OR OBSTRUCTIONS TO VISIBILITY.

OHZ001>008-015>018-024>027-034-035-043-044-260100-
   NORTHWEST OHIO

CITY           SKY/WX    TMP DP  RH WIND       PRES   REMARKS
DEFIANCE       CLEAR     61  32  33 W3        29.85R
FINDLAY        CLEAR     61  36  39 W17       29.84R
TOLEDO EXPRESS CLEAR     58  30  34 W8        29.83R
TOLEDO METCALF CLEAR     61  29  29 W15       29.83R
LIMA           CLEAR     62  46  55 W10       29.86S
$$

OHZ009>014-019>023-028>033-038-089-260100-
   NORTHEAST OHIO

CITY           SKY/WX    TMP DP  RH WIND       PRES   REMARKS
CLE-HOPKINS    CLEAR     62  42  47 W15       29.79R
CLE-LAKEFRONT  CLEAR     61  50  67 W17       29.75R
CUY CO. ARPT   CLEAR     64  50  59 W16       29.76S
LORAIN-ELYRIA  LGT RAIN  62  43  49 W10G20    29.79R
ASHTABULA      CLEAR     60  46  59 W13       29.73S
AKRON-CANTON   CLEAR     64  41  42 W16G25    29.78R
WOOSTER        CLEAR     64  38  38 W16G24    29.81R
MANSFIELD      CLEAR     61  39  44 W10G18    29.82R
YOUNGSTOWN     PTCLDY    61  46  57 W10       29.75R
$$

OHZ042-051>053-060>062-070>072-077>081-260100-
  SOUTHWEST OHIO

CITY           SKY/WX    TMP DP  RH WIND       PRES   REMARKS
CINC-COVINGTON PTCLDY    67  51  56 SW6       29.92S
CINC-LUNKEN    CLEAR     62  52  69 SW8       29.92R
HAMILTON       CLEAR     60  53  77 W3        29.91S
DAYTON         CLEAR     65  45  48 NW9       29.90R
WRIGHT-PAT AFB CLEAR     66  47  51 VRB6      29.88R
DAYTON GENERAL CLEAR     68  50  52 SW8       29.89S
WILMINGTON     CLEAR     63  52  67 SW12      29.89S
$$

OHZ036-037-039>041-045>050-054>059-063>069-073>076-082>088-260100-
  CENTRAL AND SOUTHEAST OHIO

CITY           SKY/WX    TMP DP  RH WIND       PRES   REMARKS
COLUMBUS       CLEAR     62  47  57 W8        29.83S
OSU AIRPORT    CLEAR     63  47  55 W10       29.84S
BOLTON FIELD   CLEAR     60  51  70 W6        29.86
RICKENBACK AFB CLEAR     63  54  73 SW10      29.84S
NEWARK         CLEAR     62  53  72 SW8       29.82S
MARION         CLEAR     63  39  41 W9        29.84R
LANCASTER      CLEAR     64  53  67 W8        29.84F
ZANESVILLE     CLEAR     64  51  62 W8        29.81S
NEW PHILLY     CLEAR     65  52  62 W3        29.80R
$$



USA.gov is the U.S. government's official web portal to all federal, state and local government web resources and services.